Temp
-18 -18 -18 -18 -19 -20 -21 -21 -21 -21 -22 -23 -23 -24 -26 -27 -27 -27 -27 -27 -26 -26 -26 -26 -25 -25 -24 -24 -23 -23 -22 -22 -19 -17 -15 -14 -13 -12 -12 -11 -11 -10 -9 -8 -8 -7 -7 -8 -9 -9 -9 -9 -8 -8
-18 -18 -18 -18 -19 -20 -20 -20 -21 -21 -21 -22 -23 -23 -24 -26 -27 -26 -26 -27 -26 -26 -26 -26 -26 -26 -26 -25 -23 -23 -22 -22 -22 -18 -17 -14 -15 -14 -13 -13 -11 -12 -9 -9 -8 -8 -8 -9 -9 -9 -9 -9 -9 -8
-18 -18 -18 -19 -19 -19 -20 -20 -20 -21 -21 -22 -22 -23 -23 -24 -25 -26 -26 -26 -26 -26 -26 -26 -26 -26 -26 -25 -25 -23 -23 -22 -23 -21 -18 -16 -15 -15 -14 -13 -13 -12 -12 -11 -11 -9 -9 -9 -9 -9 -9 -8 -8 -8
-18 -18 -18 -18 -19 -19 -19 -20 -20 -20 -21 -21 -22 -22 -23 -23 -24 -24 -25 -26 -26 -26 -26 -27 -26 -26 -26 -26 -25 -24 -23 -23 -23 -22 -20 -18 -17 -16 -15 -13 -11 -13 -13 -13 -10 -11 -11 -10 -9 -9 -9 -9 -8 -8
-17 -18 -18 -18 -19 -19 -19 -19 -19 -19 -20 -21 -21 -21 -22 -22 -23 -23 -24 -25 -25 -25 -26 -26 -26 -26 -26 -25 -24 -24 -23 -23 -23 -22 -21 -20 -19 -18 -16 -14 -12 -14 -14 -12 -14 -13 -10 -10 -9 -9 -10 -9 -8 -8
-17 -17 -17 -18 -18 -18 -18 -19 -19 -19 -19 -20 -20 -21 -21 -21 -22 -22 -23 -24 -24 -24 -24 -24 -24 -25 -25 -24 -24 -24 -23 -23 -23 -22 -22 -21 -20 -19 -17 -14 -14 -14 -13 -13 -13 -11 -10 -9 -8 -8 -8 -10 -9 -8
-16 -16 -17 -18 -18 -18 -18 -18 -18 -19 -19 -19 -19 -20 -20 -21 -21 -22 -22 -23 -23 -23 -23 -23 -24 -24 -23 -23 -23 -23 -23 -22 -22 -22 -21 -21 -21 -20 -18 -14 -16 -15 -13 -13 -12 -10 -8 -9 -10 -9 -8 -10 -9 -9
-16 -16 -17 -17 -18 -17 -18 -18 -18 -18 -19 -19 -19 -19 -19 -20 -20 -21 -21 -21 -22 -22 -22 -22 -22 -23 -23 -23 -23 -23 -23 -22 -22 -22 -22 -22 -21 -20 -17 -15 -16 -15 -14 -12 -13 -11 -11 -9 -10 -10 -9 -9 -10 -9
-15 -16 -16 -17 -17 -17 -17 -18 -17 -17 -18 -19 -18 -18 -19 -19 -19 -20 -20 -20 -20 -20 -21 -21 -21 -22 -22 -22 -22 -22 -22 -22 -22 -22 -22 -22 -21 -20 -17 -16 -15 -16 -14 -14 -13 -12 -11 -11 -12 -11 -10 -10 -10 -10
-15 -15 -16 -17 -17 -17 -17 -17 -17 -17 -17 -18 -18 -18 -18 -18 -18 -18 -19 -19 -19 -19 -20 -20 -21 -21 -21 -22 -22 -22 -22 -22 -21 -22 -22 -21 -21 -19 -17 -17 -15 -15 -14 -14 -14 -13 -12 -12 -11 -11 -10 -11 -10 -9
-16 -16 -16 -16 -17 -17 -17 -17 -17 -17 -17 -17 -18 -18 -17 -17 -17 -17 -18 -18 -18 -18 -19 -19 -19 -20 -20 -20 -21 -21 -21 -21 -21 -21 -20 -20 -20 -20 -20 -18 -18 -17 -15 -14 -14 -14 -13 -13 -12 -11 -10 -11 -10 -10
-16 -16 -15 -16 -17 -17 -17 -17 -17 -17 -17 -17 -18 -17 -17 -17 -17 -17 -17 -18 -17 -17 -18 -18 -18 -19 -19 -19 -20 -20 -20 -19 -19 -19 -19 -19 -20 -20 -20 -19 -18 -17 -15 -14 -14 -14 -14 -13 -12 -11 -11 -12 -10 -9
-16 -16 -16 -16 -16 -16 -17 -17 -17 -16 -17 -18 -18 -16 -16 -17 -17 -16 -17 -17 -17 -17 -17 -17 -17 -18 -18 -19 -19 -19 -19 -19 -18 -18 -18 -18 -18 -18 -19 -19 -18 -18 -15 -15 -15 -14 -14 -13 -10 -9 -10 -10 -11 -11
-16 -16 -16 -16 -16 -16 -16 -16 -17 -17 -17 -17 -16 -16 -17 -17 -16 -17 -17 -17 -17 -17 -16 -17 -17 -17 -18 -18 -18 -18 -18 -18 -17 -17 -16 -17 -17 -17 -17 -17 -18 -17 -16 -15 -16 -15 -14 -12 -10 -10 -11 -11 -11 -11
-17 -16 -16 -16 -16 -16 -16 -17 -17 -18 -17 -17 -17 -17 -17 -17 -17 -17 -17 -16 -16 -16 -16 -16 -16 -16 -17 -17 -17 -17 -17 -16 -16 -16 -16 -16 -15 -15 -16 -17 -17 -17 -16 -15 -14 -13 -13 -12 -11 -12 -11 -12 -12 -12
-17 -17 -17 -16 -16 -16 -17 -17 -17 -17 -17 -16 -16 -17 -18 -17 -17 -17 -16 -16 -16 -16 -16 -16 -16 -16 -16 -16 -16 -16 -16 -16 -16 -15 -16 -15 -14 -14 -16 -15 -16 -16 -16 -14 -13 -13 -11 -13 -12 -12 -12 -12 -12 -12
-17 -17 -17 -16 -16 -17 -17 -17 -17 -16 -16 -17 -17 -17 -17 -17 -17 -17 -16 -16 -16 -16 -16 -16 -16 -16 -16 -16 -16 -16 -16 -16 -15 -16 -15 -15 -14 -14 -14 -14 -15 -14 -13 -12 -11 -13 -13 -13 -13 -12 -11 -12 -11 -11
-16 -17 -17 -16 -16 -16 -17 -17 -17 -16 -17 -17 -17 -17 -17 -17 -17 -17 -17 -17 -17 -16 -16 -16 -16 -16 -16 -16 -15 -16 -16 -16 -15 -15 -15 -15 -15 -15 -14 -14 -13 -13 -13 -12 -13 -12 -13 -13 -12 -12 -13 -13 -12 -12
-16 -16 -17 -16 -16 -16 -16 -16 -17 -16 -16 -17 -17 -17 -17 -17 -17 -17 -17 -17 -17 -17 -16 -16 -16 -16 -16 -16 -16 -16 -16 -16 -15 -15 -15 -16 -15 -15 -15 -15 -14 -13 -13 -13 -13 -13 -13 -13 -12 -13 -12 -12 -12 -12
-16 -16 -16 -17 -16 -16 -16 -17 -16 -16 -16 -16 -17 -17 -17 -17 -17 -17 -17 -17 -17 -17 -16 -16 -16 -16 -16 -16 -16 -16 -16 -16 -16 -16 -16 -16 -16 -15 -15 -16 -16 -15 -14 -13 -13 -13 -13 -13 -13 -13 -13 -13 -13 -14
-16 -16 -16 -17 -16 -16 -16 -16 -16 -16 -16 -16 -16 -16 -17 -17 -17 -17 -17 -17 -17 -17 -17 -16 -17 -17 -16 -16 -16 -16 -16 -16 -16 -16 -17 -16 -16 -16 -16 -16 -16 -16 -16 -15 -15 -16 -15 -16 -16 -15 -15 -16 -15 -14
-16 -16 -16 -16 -16 -16 -17 -17 -17 -17 -17 -16 -16 -16 -16 -16 -17 -17 -17 -17 -17 -16 -17 -17 -17 -17 -17 -17 -17 -16 -16 -16 -16 -16 -16 -16 -17 -17 -17 -17 -17 -16 -16 -16 -15 -15 -16 -16 -16 -15 -15 -14 -15 -14
-16 -16 -16 -16 -17 -17 -17 -17 -17 -17 -17 -16 -17 -17 -17 -17 -17 -17 -17 -17 -17 -17 -17 -17 -17 -16 -16 -16 -16 -16 -16 -17 -17 -17 -16 -16 -17 -17 -17 -17 -17 -17 -17 -17 -17 -16 -16 -16 -16 -16 -15 -15 -15 -15
-16 -17 -17 -17 -17 -17 -17 -16 -17 -17 -17 -17 -17 -17 -17 -17 -17 -17 -17 -17 -17 -17 -17 -17 -17 -17 -17 -17 -17 -17 -17 -17 -17 -17 -17 -17 -17 -17 -17 -17 -17 -17 -17 -17 -17 -17 -17 -17 -17 -16 -16 -16 -16 -17
-17 -17 -17 -17 -17 -18 -18 -18 -18 -18 -17 -17 -17 -17 -17 -17 -17 -17 -17 -17 -17 -17 -17 -17 -17 -17 -17 -17 -17 -17 -17 -17 -17 -18 -18 -17 -17 -17 -17 -17 -17 -18 -17 -17 -18 -18 -18 -18 -18 -18 -17 -17 -18 -18
-17 -17 -17 -18 -18 -18 -18 -18 -18 -18 -18 -18 -18 -18 -18 -18 -17 -17 -17 -17 -18 -17 -18 -18 -18 -18 -18 -18 -17 -17 -17 -17 -18 -17 -17 -17 -18 -18 -18 -18 -18 -18 -18 -18 -18 -18 -18 -19 -19 -19 -19 -18 -18 -19
-17 -17 -17 -17 -18 -18 -18 -18 -19 -18 -18 -18 -18 -18 -18 -18 -18 -18 -18 -18 -18 -18 -18 -18 -18 -17 -17 -17 -17 -18 -18 -18 -18 -18 -18 -18 -17 -17 -18 -18 -19 -19 -18 -18 -19 -18 -18 -18 -18 -18 -18 -19 -19 -19
-17 -17 -18 -18 -18 -16 -19 -19 -19 -19 -19 -18 -18 -18 -19 -18 -18 -18 -18 -18 -18 -18 -18 -18 -18 -18 -18 -18 -18 -18 -18 -18 -18 -18 -18 -18 -18 -18 -18 -18 -18 -19 -19 -19 -19 -19 -19 -19 -20 -20 -20 -20 -20 -19
-17 -17 -18 -18 -19 -19 -19 -19 -19 -19 -19 -19 -19 -19 -19 -19 -19 -18 -18 -18 -19 -19 -18 -18 -18 -18 -18 -18 -18 -19 -19 -19 -19 -20 -20 -20 -20 -20 -20 -20 -20 -20 -20 -20 -19 -19 -20 -20 -20 -20 -20 -20 -20 -20
-17 -18 -18 -18 -17 -19 -19 -19 -19 -19 -19 -19 -19 -19 -19 -19 -19 -19 -19 -19 -19 -19 -19 -19 -19 -19 -19 -19 -20 -20 -20 -20 -20 -21 -21 -21 -21 -21 -21 -21 -22 -22 -21 -21 -21 -21 -21 -21 -21 -21 -21 -21 -21 -21
-17 -18 -18 -18 -19 -19 -19 -19 -19 -19 -19 -19 -19 -19 -19 -19 -19 -19 -19 -19 -18 -18 -19 -19 -19 -19 -20 -20 -21 -21 -21 -21 -22 -22 -22 -22 -22 -22 -22 -23 -23 -23 -23 -23 -23 -23 -22 -23 -23 -22 -22 -22 -22 -22
-17 -18 -19 -19 -19 -19 -19 -19 -19 -19 -19 -19 -19 -19 -19 -19 -19 -19 -19 -19 -20 -19 -20 -20 -20 -20 -21 -21 -21 -21 -22 -22 -22 -23 -23 -23 -23 -23 -24 -24 -24 -24 -24 -24 -24 -24 -24 -24 -24 -24 -23 -23 -23 -23
-18 -18 -19 -19 -19 -19 -19 -19 -19 -19 -19 -19 -19 -19 -20 -19 -19 -19 -19 -20 -20 -20 -21 -21 -21 -21 -22 -22 -22 -22 -22 -22 -23 -24 -25 -25 -25 -25 -25 -25 -25 -25 -25 -25 -25 -25 -25 -25 -25 -25 -25 -25 -25 -25
Height
5712 5702 5691 5679 5667 5655 5643 5634 5623 5611 5599 5586 5575 5563 5550 5544 5545 5547 5548 5550 5552 5554 5557 5559 5563 5568 5571 5577 5584 5588 5598 5604 5612 5625 5635 5653 5666 5679 5692 5704 5716 5726 5736 5747 5757 5765 5774 5788 5795 5799 5804 5805 5809 5814
5708 5698 5689 5678 5666 5654 5643 5633 5622 5612 5601 5589 5578 5568 5558 5549 5547 5547 5548 5549 5548 5550 5552 5555 5557 5561 5565 5571 5577 5583 5590 5596 5599 5611 5619 5634 5650 5666 5677 5687 5701 5710 5722 5738 5745 5755 5762 5773 5779 5783 5792 5796 5801 5803
5704 5695 5686 5677 5666 5655 5643 5633 5622 5612 5603 5593 5582 5573 5565 5557 5550 5548 5546 5546 5547 5548 5549 5550 5552 5553 5556 5561 5567 5575 5582 5589 5593 5599 5611 5621 5632 5642 5656 5672 5681 5699 5710 5717 5730 5738 5748 5756 5766 5777 5781 5786 5790 5799
5701 5692 5684 5675 5665 5656 5645 5634 5623 5614 5604 5596 5586 5578 5570 5563 5557 5552 5548 5547 5547 5547 5546 5546 5545 5548 5550 5552 5559 5568 5575 5579 5584 5591 5601 5608 5623 5633 5644 5653 5667 5679 5688 5703 5713 5725 5735 5743 5754 5766 5769 5776 5785 5793
5698 5689 5682 5674 5665 5656 5646 5636 5626 5617 5607 5598 5590 5582 5575 5568 5562 5557 5553 5550 5547 5546 5543 5542 5541 5543 5546 5549 5555 5561 5568 5573 5578 5584 5593 5602 5611 5623 5635 5643 5663 5672 5685 5687 5705 5705 5716 5728 5738 5752 5762 5769 5777 5781
5696 5687 5680 5673 5665 5656 5647 5638 5629 5619 5610 5601 5593 5586 5580 5573 5567 5561 5557 5554 5549 5547 5546 5544 5544 5545 5547 5550 5553 5558 5564 5569 5573 5577 5584 5590 5601 5608 5619 5634 5650 5665 5667 5675 5680 5691 5702 5713 5723 5733 5747 5757 5765 5773
5696 5687 5680 5673 5665 5656 5648 5640 5632 5623 5614 5605 5597 5590 5584 5578 5571 5567 5563 5559 5555 5551 5549 5549 5549 5549 5550 5552 5555 5558 5561 5565 5568 5573 5577 5582 5587 5591 5605 5617 5638 5645 5651 5666 5670 5682 5693 5703 5717 5725 5737 5747 5752 5763
5698 5688 5681 5673 5666 5658 5650 5642 5635 5627 5619 5610 5602 5595 5587 5581 5575 5570 5565 5563 5559 5558 5554 5553 5553 5552 5553 5554 5556 5557 5559 5561 5564 5566 5567 5571 5577 5581 5590 5617 5628 5639 5650 5659 5664 5673 5687 5696 5710 5718 5727 5734 5743 5750
5700 5690 5682 5675 5667 5659 5652 5644 5637 5630 5624 5616 5608 5601 5594 5586 5579 5574 5570 5566 5563 5562 5559 5558 5556 5556 5556 5556 5557 5557 5557 5558 5560 5561 5563 5562 5566 5564 5593 5610 5618 5625 5638 5650 5658 5666 5681 5692 5702 5711 5719 5727 5734 5741
5703 5693 5685 5677 5669 5661 5654 5647 5639 5633 5627 5620 5614 5607 5600 5592 5585 5580 5575 5571 5567 5565 5561 5561 5560 5559 5559 5558 5558 5558 5557 5557 5557 5559 5557 5557 5560 5573 5589 5591 5600 5611 5622 5637 5650 5662 5672 5685 5694 5700 5708 5718 5724 5731
5706 5697 5687 5679 5672 5664 5657 5650 5643 5637 5630 5625 5620 5614 5606 5597 5591 5584 5577 5573 5571 5570 5567 5564 5563 5561 5560 5560 5559 5559 5559 5559 5558 5558 5556 5557 5559 5564 5569 5579 5592 5600 5612 5628 5646 5656 5667 5678 5687 5696 5700 5707 5715 5721
5707 5700 5691 5682 5674 5666 5659 5653 5646 5639 5633 5628 5624 5620 5612 5603 5597 5591 5585 5580 5577 5574 5572 5569 5567 5565 5563 5561 5560 5560 5559 5560 5560 5559 5558 5558 5559 5561 5563 5571 5583 5596 5611 5620 5637 5648 5660 5668 5676 5687 5698 5694 5703 5711
5708 5702 5694 5686 5677 5669 5662 5657 5649 5640 5634 5630 5630 5625 5617 5611 5605 5599 5593 5587 5585 5581 5579 5574 5571 5568 5567 5564 5563 5561 5562 5561 5560 5560 5560 5560 5560 5562 5568 5573 5582 5591 5605 5616 5629 5642 5652 5657 5666 5676 5674 5672 5685 5701
5710 5703 5696 5689 5681 5673 5667 5661 5653 5648 5643 5638 5631 5625 5621 5618 5613 5607 5601 5597 5593 5590 5586 5581 5576 5572 5571 5568 5567 5567 5567 5565 5565 5563 5561 5558 5555 5559 5562 5574 5580 5587 5598 5609 5621 5631 5644 5654 5662 5671 5671 5673 5687 5696
5710 5704 5698 5692 5686 5678 5672 5664 5659 5655 5650 5640 5636 5632 5629 5625 5620 5614 5609 5605 5599 5596 5590 5589 5586 5582 5579 5578 5577 5577 5576 5575 5573 5570 5567 5565 5564 5562 5564 5571 5577 5585 5596 5607 5617 5628 5641 5650 5656 5662 5671 5680 5685 5689
5712 5707 5702 5696 5689 5681 5674 5669 5668 5663 5655 5649 5644 5640 5637 5633 5628 5623 5618 5615 5611 5607 5603 5601 5597 5595 5593 5591 5590 5588 5586 5585 5581 5578 5579 5576 5574 5574 5574 5579 5584 5590 5598 5601 5611 5625 5631 5646 5655 5662 5667 5672 5677 5681
5714 5709 5704 5698 5693 5685 5680 5678 5673 5667 5658 5653 5651 5648 5644 5640 5635 5631 5626 5624 5621 5619 5615 5612 5609 5606 5605 5603 5601 5598 5598 5596 5595 5592 5590 5587 5585 5585 5588 5587 5590 5597 5602 5609 5606 5622 5632 5640 5649 5653 5661 5665 5664 5669
5715 5710 5706 5701 5696 5691 5686 5682 5679 5675 5666 5662 5658 5654 5650 5648 5645 5640 5635 5632 5631 5627 5625 5620 5618 5616 5614 5613 5609 5610 5609 5607 5606 5604 5601 5599 5596 5595 5595 5597 5600 5607 5611 5616 5624 5627 5634 5640 5646 5653 5656 5659 5663 5666
5716 5711 5707 5703 5698 5694 5690 5687 5683 5680 5674 5669 5665 5662 5658 5654 5651 5648 5645 5642 5638 5635 5633 5629 5625 5624 5623 5622 5621 5619 5618 5616 5615 5613 5610 5609 5606 5604 5603 5605 5608 5612 5615 5621 5627 5631 5634 5638 5641 5649 5648 5644 5654 5657
5717 5712 5707 5704 5701 5697 5694 5691 5689 5685 5681 5677 5671 5669 5664 5659 5656 5653 5651 5649 5646 5644 5641 5634 5634 5634 5632 5631 5629 5626 5625 5623 5622 5621 5619 5618 5617 5616 5613 5614 5614 5616 5617 5621 5624 5627 5630 5631 5638 5641 5644 5644 5643 5649
5717 5712 5708 5704 5701 5698 5696 5693 5690 5687 5685 5682 5678 5674 5670 5667 5664 5661 5657 5654 5654 5650 5646 5644 5642 5641 5639 5638 5636 5635 5633 5630 5627 5627 5626 5625 5626 5625 5624 5623 5621 5621 5621 5622 5624 5626 5628 5629 5630 5632 5637 5642 5645 5648
5716 5712 5708 5704 5700 5698 5696 5694 5691 5689 5687 5684 5680 5678 5675 5672 5669 5667 5663 5662 5658 5653 5651 5650 5649 5646 5643 5642 5642 5641 5639 5637 5635 5633 5631 5630 5630 5630 5629 5629 5629 5629 5629 5629 5629 5631 5631 5632 5634 5635 5637 5638 5639 5639
5715 5710 5707 5703 5700 5697 5696 5693 5690 5688 5686 5684 5681 5679 5677 5674 5672 5670 5668 5666 5663 5660 5658 5655 5654 5652 5650 5648 5647 5645 5643 5642 5641 5640 5637 5635 5634 5633 5632 5630 5630 5630 5630 5630 5630 5630 5630 5631 5630 5630 5632 5632 5633 5635
5714 5709 5705 5702 5699 5696 5693 5690 5687 5685 5681 5679 5679 5677 5674 5672 5671 5669 5667 5666 5664 5662 5660 5658 5656 5654 5652 5650 5648 5646 5644 5643 5641 5640 5639 5637 5634 5632 5632 5632 5629 5627 5626 5624 5623 5623 5623 5623 5624 5624 5626 5626 5624 5624
5715 5711 5707 5702 5697 5694 5691 5687 5683 5680 5674 5676 5676 5675 5670 5668 5668 5667 5666 5665 5663 5661 5659 5656 5654 5652 5651 5649 5647 5645 5642 5640 5638 5636 5635 5634 5632 5631 5628 5624 5624 5622 5622 5620 5617 5615 5614 5615 5615 5614 5615 5617 5615 5613
5715 5711 5706 5701 5697 5693 5689 5686 5683 5681 5678 5676 5672 5668 5665 5666 5665 5663 5663 5662 5661 5659 5656 5654 5653 5651 5649 5646 5644 5641 5638 5636 5632 5628 5627 5627 5625 5619 5616 5616 5615 5613 5610 5609 5608 5606 5605 5604 5603 5603 5602 5601 5603 5604
5713 5709 5703 5698 5697 5691 5688 5684 5681 5679 5676 5674 5671 5668 5665 5663 5661 5660 5657 5658 5657 5655 5653 5651 5649 5647 5645 5642 5640 5637 5635 5631 5627 5621 5615 5612 5610 5612 5608 5605 5605 5601 5599 5599 5598 5596 5595 5594 5592 5590 5590 5589 5586 5587
5712 5708 5704 5700 5695 5692 5687 5683 5679 5676 5674 5672 5669 5666 5663 5661 5659 5657 5654 5652 5651 5649 5647 5646 5644 5641 5638 5635 5632 5628 5625 5622 5617 5613 5606 5600 5596 5598 5596 5590 5587 5586 5584 5583 5581 5580 5578 5577 5576 5576 5576 5575 5574 5573
5710 5706 5702 5696 5692 5688 5684 5681 5677 5675 5672 5670 5667 5664 5662 5660 5659 5656 5654 5652 5649 5646 5644 5641 5638 5635 5631 5626 5622 5616 5613 5611 5606 5602 5598 5592 5587 5583 5580 5577 5574 5571 5569 5565 5564 5564 5563 5561 5561 5560 5558 5558 5557 5557
5710 5704 5700 5696 5693 5686 5682 5679 5676 5673 5671 5669 5667 5664 5662 5659 5657 5654 5651 5648 5645 5642 5638 5635 5631 5626 5621 5616 5611 5605 5600 5596 5591 5586 5582 5578 5574 5570 5566 5563 5560 5556 5553 5550 5547 5543 5543 5544 5541 5540 5539 5538 5538 5538
5696 5701 5698 5695 5690 5686 5682 5679 5676 5673 5670 5668 5666 5663 5661 5658 5655 5651 5648 5644 5639 5636 5631 5626 5621 5616 5610 5604 5599 5594 5587 5583 5577 5573 5568 5564 5560 5556 5552 5549 5545 5541 5538 5534 5531 5528 5526 5525 5524 5522 5520 5520 5519 5518
5710 5704 5698 5692 5690 5686 5683 5680 5676 5673 5671 5667 5663 5660 5657 5655 5652 5648 5645 5640 5634 5628 5623 5618 5612 5606 5600 5594 5588 5582 5577 5572 5566 5560 5555 5550 5546 5541 5536 5533 5529 5525 5521 5517 5514 5512 5509 5507 5504 5503 5502 5500 5500 5499
5706 5702 5696 5691 5686 5683 5681 5677 5673 5670 5668 5665 5663 5659 5655 5652 5647 5642 5636 5633 5628 5621 5615 5610 5604 5597 5591 5585 5578 5571 5565 5560 5553 5547 5540 5536 5532 5526 5521 5517 5513 5510 5505 5502 5498 5495 5492 5490 5487 5485 5483 5482 5480 5479
Wind_Speed
52 51 51 49 53 52 44 45 47 47 46 44 41 43 39 14 4 8 9 10 21 24 25 28 28 29 38 42 40 40 36 37 53 64 72 73 76 77 73 70 70 70 69 66 64 62 60 48 30 37 27 31 32 28
48 45 49 47 50 50 45 43 41 41 43 41 39 39 39 26 11 5 2 6 13 19 22 25 26 27 30 38 42 43 38 36 39 54 66 73 72 71 71 72 70 66 73 68 68 64 58 52 50 49 47 38 34 34
41 42 45 45 47 46 45 45 41 39 35 37 39 36 35 34 26 8 4 6 7 11 14 19 23 27 29 33 40 41 41 38 35 43 49 64 76 73 80 75 72 71 62 66 63 69 63 60 56 49 53 51 45 28
40 39 42 45 45 43 43 44 41 37 32 32 31 33 33 30 28 24 11 6 7 12 16 17 21 22 26 27 34 38 41 43 43 39 44 53 61 72 65 79 80 71 69 58 66 63 56 60 58 54 55 51 47 36
41 36 38 42 43 40 40 42 43 37 35 35 38 38 29 28 26 24 20 16 8 5 5 6 7 13 15 17 23 30 36 40 39 38 37 45 50 61 68 70 74 62 55 66 50 52 64 66 60 60 52 51 43 41
44 36 35 37 40 37 37 37 40 40 37 35 29 36 35 31 27 24 20 18 17 11 9 6 5 4 5 9 14 20 26 32 36 36 38 45 50 57 69 74 67 65 52 54 66 69 70 66 70 62 55 49 40 40
44 38 35 35 37 34 37 34 35 38 40 35 28 26 28 27 30 26 21 18 20 14 11 9 6 4 4 4 5 9 14 20 26 30 34 40 52 59 68 76 67 70 68 54 66 71 75 71 61 63 60 48 50 44
43 38 35 33 34 35 35 34 30 33 37 42 31 30 27 23 22 24 23 21 17 16 13 12 8 3 1 4 6 9 10 13 15 21 28 34 43 60 67 65 68 69 70 61 60 69 63 68 61 58 57 57 50 49
42 39 35 35 33 33 35 34 24 28 35 37 34 31 33 35 30 22 17 20 19 17 14 15 10 8 3 0 5 9 10 13 15 17 22 32 39 55 54 63 61 76 72 71 63 67 62 58 54 55 55 51 53 55
38 38 37 35 33 32 34 35 29 27 28 34 37 29 29 33 39 43 31 30 24 19 16 21 7 5 8 8 6 4 7 5 4 9 19 26 31 32 46 74 72 71 79 74 66 64 62 50 44 37 45 45 51 52
36 40 39 37 33 32 33 34 27 26 26 30 30 32 29 33 33 34 42 45 43 34 21 21 17 14 7 7 2 4 2 6 5 2 8 10 11 24 50 67 75 70 60 75 69 56 51 49 45 39 37 41 42 45
33 37 40 38 35 29 29 29 28 21 21 24 28 29 28 27 36 35 35 35 35 39 34 26 20 13 11 7 4 7 10 11 9 9 9 8 3 14 45 56 67 74 74 60 61 63 55 55 57 50 47 53 58 52
30 33 36 36 34 28 27 32 32 31 28 27 20 20 28 31 29 37 30 28 26 25 31 25 20 17 14 12 11 10 15 15 10 9 13 3 7 7 28 53 48 49 72 61 62 74 42 38 33 34 41 57 51 38
28 31 30 31 30 27 28 32 35 30 19 13 20 31 33 33 34 34 32 30 26 21 28 16 17 22 21 20 17 16 17 13 10 9 10 4 9 9 22 32 47 57 61 58 49 45 41 34 38 57 50 38 33 34
27 29 30 28 27 25 24 35 36 26 22 31 39 34 32 32 31 32 30 24 19 21 28 29 30 32 34 33 29 25 23 26 21 23 10 5 5 3 11 20 34 51 57 59 57 54 55 52 40 32 32 31 35 37
25 26 25 24 23 27 32 33 30 18 30 39 34 26 29 29 30 28 28 28 23 29 31 34 36 35 35 34 34 34 32 33 33 33 31 18 28 5 9 15 23 31 45 56 57 51 46 51 44 37 39 39 40 42
25 24 23 23 24 27 28 26 26 25 25 25 27 25 29 31 31 31 29 31 26 24 23 23 27 30 31 34 29 31 28 22 27 28 31 33 21 17 14 13 24 35 40 55 45 42 49 53 46 44 40 44 38 36
23 23 21 21 20 22 24 25 23 24 28 22 19 24 26 30 30 30 33 35 30 22 22 26 28 26 30 31 30 22 22 27 21 27 27 30 31 23 11 16 34 33 32 34 23 35 47 49 45 37 44 47 45 46
23 21 20 18 18 18 22 21 20 20 23 25 26 26 29 29 27 23 24 25 26 26 21 23 33 33 31 28 25 24 23 22 22 23 24 23 27 28 26 19 20 31 31 23 28 35 37 41 43 46 41 36 49 49
23 24 17 17 15 14 15 16 13 16 18 20 23 22 21 22 23 24 23 22 23 20 23 29 26 25 26 25 24 23 21 21 20 19 19 20 21 20 17 22 17 11 17 36 35 20 23 25 23 23 22 19 13 15
22 23 19 15 13 11 12 12 10 11 13 14 17 18 20 20 19 18 19 20 17 19 21 22 22 21 20 21 21 21 23 23 21 22 20 18 18 15 15 16 17 16 15 12 7 6 3 2 2 4 10 14 19 23
22 22 19 18 12 11 10 10 10 9 7 8 11 13 14 14 14 15 17 13 11 16 17 19 20 21 20 21 22 23 23 21 20 20 19 20 19 18 17 14 11 9 7 7 6 4 5 7 9 13 16 17 18 19
25 22 21 19 15 15 12 11 10 9 9 10 10 12 12 12 11 11 10 8 7 7 9 11 11 11 11 12 14 17 17 18 17 16 18 18 18 18 18 15 14 12 10 9 11 14 14 13 15 18 18 21 22 21
25 22 22 21 19 16 13 8 13 12 11 11 11 13 13 13 13 12 11 11 9 7 5 6 7 8 8 8 9 11 13 14 13 13 14 16 18 20 19 19 21 21 19 19 19 19 19 19 18 19 20 23 25 24
25 23 23 23 22 17 13 13 18 16 20 13 12 13 18 10 14 14 15 14 12 13 12 12 11 11 12 10 10 12 15 17 19 19 21 23 23 25 26 28 27 28 25 23 24 25 26 24 24 26 26 23 24 26
23 24 24 23 23 21 17 14 12 13 13 14 17 19 17 13 12 15 15 15 14 18 17 15 13 13 14 14 16 19 21 23 26 27 28 28 33 38 36 33 29 26 26 24 25 27 28 31 32 30 31 32 31 30
26 27 17 16 29 22 18 15 15 15 15 16 16 17 17 16 15 18 20 16 16 18 18 18 19 21 23 25 26 26 28 32 35 40 44 45 44 37 36 35 30 30 31 30 29 30 30 31 33 35 36 37 39 37
26 26 26 26 21 14 20 17 16 15 13 13 15 17 16 15 12 17 16 19 21 22 20 21 24 27 27 27 32 36 36 41 44 44 45 47 46 39 36 39 39 36 36 35 35 36 37 37 36 36 36 37 39 41
27 32 31 29 26 22 15 17 16 13 11 14 16 17 15 14 12 12 11 12 13 13 16 20 24 28 32 36 38 40 40 37 38 37 37 39 41 41 41 40 41 41 41 42 42 41 39 41 41 42 43 44 44 44
19 31 33 27 16 24 20 18 15 13 12 13 13 13 14 14 15 17 21 23 23 23 25 27 28 30 33 35 37 40 41 38 39 38 38 37 36 35 35 36 36 37 37 38 40 43 41 39 43 45 45 45 47 46
10 37 32 26 21 19 19 17 12 13 14 14 14 14 14 15 17 23 29 28 28 27 30 34 37 38 39 39 39 39 40 38 37 37 37 37 37 37 37 37 38 39 39 40 41 42 43 43 42 44 44 44 44 45
25 28 28 26 19 17 17 16 14 11 12 16 18 19 19 21 26 31 29 30 34 37 38 38 39 40 40 39 39 39 39 39 40 40 40 40 39 40 40 40 40 40 40 41 42 41 41 42 43 43 45 45 45 46
26 26 25 22 21 19 17 19 19 16 18 20 20 18 20 31 32 33 36 36 36 38 39 39 37 38 38 39 39 41 42 41 40 37 36 35 35 36 36 37 37 37 37 37 36 36 37 36 36 37 37 37 38 40
Wind_Direction
337 339 344 348 352 353 346 344 351 354 355 357 2 5 7 8 244 278 241 230 229 231 233 238 239 231 224 225 223 223 222 227 225 218 218 212 215 214 214 215 218 224 223 223 224 227 227 221 200 212 214 228 226 233
335 339 345 348 351 354 354 354 353 353 357 5 5 9 14 17 3 313 318 271 245 238 241 244 245 241 236 230 225 224 223 218 219 222 218 212 212 212 213 213 214 216 222 225 226 227 227 219 214 212 209 214 223 221
338 341 345 348 351 356 357 357 356 353 357 5 9 11 15 19 20 356 294 274 253 252 260 253 245 244 245 235 225 221 219 225 227 221 216 216 211 210 210 211 211 216 218 223 224 225 226 226 222 218 218 221 226 228
337 340 344 349 351 355 358 357 357 357 351 358 6 14 17 20 24 24 12 328 288 268 269 261 265 251 244 237 221 217 218 221 225 228 217 216 216 213 208 213 212 211 211 217 226 224 225 228 228 218 224 227 233 238
347 339 340 347 353 356 359 359 1 359 354 352 352 359 13 22 24 25 28 29 26 351 342 293 262 225 220 220 215 217 215 221 227 230 222 216 213 210 211 213 215 205 208 217 212 225 225 225 229 224 224 231 229 232
356 350 346 350 354 357 0 358 3 2 355 357 351 345 354 10 22 28 36 32 33 38 40 49 85 129 197 213 208 211 215 220 225 227 225 216 208 209 207 213 207 205 198 211 216 216 224 224 228 226 225 220 223 226
358 356 356 357 359 2 2 1 0 3 4 10 9 11 5 1 5 13 19 27 37 30 42 46 55 108 136 158 196 209 218 226 230 231 230 223 212 211 206 208 199 196 200 208 221 225 226 226 227 232 227 215 215 213
1 1 1 1 2 4 6 4 6 7 9 12 16 24 24 21 17 11 15 14 357 23 44 58 56 63 177 189 210 214 224 233 229 230 228 226 220 218 209 204 200 197 202 206 209 223 222 229 226 230 231 220 220 224
3 6 6 6 8 6 9 10 10 4 6 15 16 22 31 34 30 27 31 33 32 24 46 57 59 92 113 250 239 239 233 240 236 236 234 231 220 219 205 194 192 199 202 207 209 220 221 220 223 232 232 232 226 223
6 8 8 8 9 6 9 14 13 10 17 21 16 23 30 35 37 35 23 29 31 24 21 25 32 103 124 140 127 128 203 200 206 233 247 245 236 218 195 200 202 195 196 203 209 216 218 211 208 218 223 221 225 228
5 5 7 5 4 3 9 16 16 17 23 21 13 15 24 42 39 37 29 25 20 26 9 358 0 6 0 0 272 259 277 16 351 352 315 281 252 211 205 199 206 209 200 201 202 204 206 205 207 209 231 225 225 226
359 5 8 11 7 4 9 11 12 19 20 14 8 2 18 32 33 31 28 25 28 26 15 5 8 12 17 20 344 338 327 338 343 330 336 9 309 232 204 202 204 203 201 202 201 207 211 216 222 227 218 232 240 237
354 355 358 7 16 19 18 19 23 23 22 13 352 15 27 28 23 22 30 35 6 23 25 21 17 12 10 5 356 328 325 338 339 301 305 280 276 207 200 201 205 212 198 202 195 201 194 186 191 205 209 206 212 215
3 2 3 8 20 22 27 20 23 24 36 19 27 31 28 33 30 26 33 24 18 35 39 40 42 52 45 34 26 29 34 40 30 33 63 254 264 217 204 205 203 202 207 200 206 208 200 198 214 215 227 237 210 200
1 4 7 9 15 23 26 25 20 21 28 46 34 29 36 39 36 28 33 33 39 71 77 75 73 72 71 71 71 71 70 62 57 46 46 60 65 89 185 176 199 188 184 188 195 202 203 196 198 208 207 199 204 206
5 7 3 11 19 30 29 26 6 20 46 42 29 29 38 43 46 44 44 57 72 77 75 75 74 71 70 68 62 55 55 55 53 54 47 62 154 129 154 199 204 189 184 187 180 184 194 202 206 199 203 205 207 209
8 7 7 16 25 35 35 27 21 15 49 47 37 41 47 52 50 53 50 55 65 79 78 72 70 68 73 62 55 48 48 51 55 52 41 46 76 158 166 204 195 177 170 175 174 181 200 190 188 200 205 204 218 207
7 6 8 12 23 26 28 23 25 29 47 53 42 48 43 53 56 56 58 60 52 47 61 66 66 71 66 56 48 47 47 54 68 59 52 46 55 66 111 162 178 175 190 175 187 187 186 192 196 215 211 213 218 223
6 5 5 6 15 24 30 25 29 34 45 51 54 56 38 52 56 61 56 50 52 51 51 59 60 54 50 48 51 57 55 59 65 59 61 47 50 48 50 86 155 182 187 205 217 220 215 208 217 217 222 224 226 219
1 2 0 2 11 17 25 28 25 38 43 43 50 49 52 52 49 49 50 51 58 58 59 64 67 65 58 48 44 47 49 47 53 56 54 51 56 57 51 44 40 74 184 205 207 192 192 184 178 187 195 203 205 215
360 2 3 354 354 4 8 8 15 35 37 35 38 37 36 39 42 39 34 36 40 53 57 55 58 58 56 51 50 45 45 44 39 38 40 35 37 38 36 34 30 30 31 33 45 46 69 73 52 230 240 227 233 229
360 359 0 3 359 0 359 352 349 348 10 20 28 24 29 21 18 22 32 27 24 38 50 64 63 59 56 57 54 51 50 48 43 40 33 34 27 28 22 16 17 7 0 345 329 314 276 261 240 231 243 244 242 248
1 3 2 4 2 353 341 332 327 312 305 308 321 330 346 352 357 358 357 356 20 47 64 61 56 58 52 41 30 25 25 24 25 28 25 20 15 9 9 359 349 340 326 297 278 278 279 276 268 264 258 258 258 255
4 4 2 5 2 357 352 340 325 308 280 279 294 306 312 314 324 326 321 325 329 318 307 315 324 325 327 338 339 340 339 343 345 345 347 343 344 343 334 324 328 327 322 308 296 289 280 276 270 265 267 268 267 265
3 357 354 353 359 360 345 329 351 335 353 329 300 294 281 290 302 304 307 319 310 314 310 303 301 304 309 315 324 328 330 327 323 323 321 320 318 318 316 311 308 302 295 292 289 289 288 280 274 273 267 258 253 251
355 357 359 358 354 354 351 345 348 348 348 347 337 325 325 303 297 288 276 299 297 306 297 290 290 288 296 306 309 308 310 313 312 312 309 307 309 313 312 308 302 292 290 288 283 279 278 276 275 272 272 269 261 258
358 359 6 342 347 345 345 342 340 338 335 330 330 329 328 318 285 297 300 287 291 297 306 292 286 284 286 292 301 300 295 299 302 302 302 301 301 302 300 299 296 292 289 286 282 278 275 271 269 269 269 268 269 264
356 356 355 351 360 326 329 340 343 338 329 335 339 340 344 3 350 335 309 270 281 292 300 299 296 295 290 291 297 299 299 300 300 301 300 298 298 297 294 291 291 290 288 286 284 284 282 281 277 272 268 265 263 263
352 354 348 355 354 349 344 346 348 345 346 352 354 353 352 349 345 351 346 342 336 330 314 311 309 302 299 299 299 298 299 301 298 297 295 294 295 295 294 290 287 286 285 283 280 277 275 273 270 269 268 268 266 266
326 345 350 359 329 342 350 353 353 356 351 350 349 351 359 359 351 344 345 339 330 323 316 310 308 308 307 308 308 308 308 308 306 304 302 300 297 295 293 292 291 289 288 286 284 283 281 279 275 272 270 268 266 265
354 350 350 357 359 355 355 357 4 2 355 345 342 341 335 339 338 332 333 330 328 328 328 324 320 319 318 317 316 315 314 314 312 310 307 305 302 300 297 296 294 293 292 290 287 285 282 278 277 276 275 274 272 271
345 347 347 350 356 354 0 356 353 356 357 358 356 345 336 338 338 332 336 337 331 327 326 326 323 321 321 320 319 318 316 315 311 308 305 303 301 299 297 296 295 294 292 290 288 286 284 281 279 276 274 273 272 271
355 353 350 352 351 354 358 357 359 360 347 350 344 341 329 329 332 335 333 334 330 327 327 327 327 325 327 326 323 322 320 319 315 312 310 309 308 305 303 300 298 297 296 295 294 293 290 286 284 283 282 280 278 276